• In Belgium
  • List of Countries
  • For 7 days
  • Water Temperature
  • Satellite Maps
  • Weather Map
  • Weather Widgets
  • user-avatar
    Login

    Hourly Weather Kalgoorlie

    Today, 26 June, Monday

    Time Temperature Precipitation Wind Pressure Humidity
    00:00 +10°C° 0 mm 3 mps 736 mmHg 71%
    01:00 +9°C° 0 mm 3 mps 736 mmHg 74%
    02:00 +9°C° 0 mm 3 mps 736 mmHg 77%
    03:00 +8°C° 0 mm 3 mps 736 mmHg 81%
    04:00 +8°C° 0 mm 3 mps 736 mmHg 84%
    05:00 +7°C° 0 mm 2 mps 735 mmHg 88%
    06:00 +7°C° 0 mm 2 mps 736 mmHg 86%
    07:00 +7°C° 0 mm 2 mps 736 mmHg 85%
    08:00 +8°C° 0 mm 2 mps 736 mmHg 83%
    09:00 +9°C° 0 mm 3 mps 736 mmHg 74%
    10:00 +11°C° 0 mm 3 mps 736 mmHg 64%
    11:00 +12°C° 0 mm 3 mps 736 mmHg 54%
    12:00 +13°C° 0 mm 3 mps 736 mmHg 51%
    13:00 +13°C° 0 mm 3 mps 735 mmHg 47%
    14:00 +14°C° 0 mm 3 mps 735 mmHg 44%
    15:00 +14°C° 0 mm 2 mps 735 mmHg 46%
    16:00 +14°C° 0 mm 2 mps 735 mmHg 49%
    17:00 +13°C° 0 mm 2 mps 735 mmHg 51%
    18:00 +13°C° 0 mm 2 mps 735 mmHg 53%
    19:00 +12°C° 0 mm 2 mps 736 mmHg 56%
    20:00 +12°C° 0 mm 1 mps 736 mmHg 58%
    21:00 +11°C° 0 mm 1 mps 736 mmHg 60%
    22:00 +11°C° 0 mm 1 mps 736 mmHg 62%
    23:00 +10°C° 0 mm 1 mps 736 mmHg 65%

    Tomorrow, 27 June, Tuesday

    Time Temperature Precipitation Wind Pressure Humidity
    00:00 +9°C° 0 mm 2 mps 736 mmHg 67%
    01:00 +9°C° 0 mm 2 mps 736 mmHg 69%
    02:00 +9°C° 0 mm 2 mps 736 mmHg 71%
    03:00 +8°C° 0 mm 2 mps 736 mmHg 75%
    04:00 +8°C° 0 mm 3 mps 736 mmHg 78%
    05:00 +8°C° 0 mm 3 mps 736 mmHg 82%
    06:00 +8°C° 0 mm 3 mps 736 mmHg 83%
    07:00 +8°C° 0 mm 3 mps 737 mmHg 84%
    08:00 +8°C° 0 mm 3 mps 737 mmHg 85%
    09:00 +10°C° 0 mm 4 mps 737 mmHg 75%
    10:00 +12°C° 0 mm 4 mps 737 mmHg 66%
    11:00 +14°C° 0 mm 5 mps 737 mmHg 56%
    12:00 +14°C° 0 mm 5 mps 737 mmHg 52%
    13:00 +15°C° 0 mm 5 mps 737 mmHg 49%
    14:00 +15°C° 0 mm 5 mps 736 mmHg 45%
    15:00 +14°C° 0 mm 4 mps 736 mmHg 49%
    16:00 +13°C° 0 mm 4 mps 736 mmHg 53%
    17:00 +12°C° 0 mm 3 mps 737 mmHg 57%
    18:00 +12°C° 0 mm 4 mps 737 mmHg 64%
    19:00 +11°C° 0 mm 4 mps 738 mmHg 70%
    20:00 +10°C° 0 mm 4 mps 738 mmHg 77%
    21:00 +10°C° 0 mm 4 mps 739 mmHg 80%
    22:00 +9°C° 0 mm 3 mps 739 mmHg 83%
    23:00 +9°C° 0 mm 3 mps 739 mmHg 86%

    Day after tomorrow, 28 June, Wednesday

    Time Temperature Precipitation Wind Pressure Humidity
    00:00 +8°C° 0 mm 3 mps 739 mmHg 89%
    01:00 +7°C° 0 mm 4 mps 740 mmHg 91%
    02:00 +7°C° 0 mm 4 mps 740 mmHg 94%
    03:00 +6°C° 0 mm 4 mps 740 mmHg 94%
    04:00 +7°C° 0 mm 3 mps 740 mmHg 95%
    05:00 +7°C° 0 mm 3 mps 740 mmHg 96%
    06:00 +7°C° 0 mm 3 mps 740 mmHg 94%
    07:00 +7°C° 0 mm 3 mps 741 mmHg 93%
    08:00 +7°C° 0 mm 3 mps 741 mmHg 91%
    09:00 +8°C° 0 mm 4 mps 741 mmHg 81%
    10:00 +10°C° 0 mm 5 mps 742 mmHg 70%
    11:00 +13°C° 0 mm 5 mps 742 mmHg 60%
    12:00 +14°C° 0 mm 5 mps 741 mmHg 57%
    13:00 +14°C° 0 mm 5 mps 741 mmHg 54%
    14:00 +15°C° 0 mm 5 mps 740 mmHg 52%
    15:00 +13°C° 0 mm 5 mps 740 mmHg 56%
    16:00 +12°C° 0 mm 4 mps 740 mmHg 60%
    17:00 +11°C° 0 mm 3 mps 741 mmHg 65%
    18:00 +11°C° 0 mm 3 mps 741 mmHg 67%
    19:00 +10°C° 0 mm 3 mps 742 mmHg 69%
    20:00 +9°C° 0 mm 3 mps 742 mmHg 72%
    21:00 +8°C° 0 mm 3 mps 742 mmHg 72%
    22:00 +8°C° 0 mm 3 mps 742 mmHg 72%
    23:00 +7°C° 0 mm 3 mps 742 mmHg 72%

    29 June, Thursday

    Time Temperature Precipitation Wind Pressure Humidity
    00:00 +7°C° 0 mm 3 mps 742 mmHg 75%
    01:00 +5°C° 0 mm 4 mps 742 mmHg 78%
    02:00 +5°C° 0 mm 4 mps 741 mmHg 81%
    03:00 +5°C° 0 mm 4 mps 741 mmHg 84%
    04:00 +4°C° 0 mm 4 mps 741 mmHg 88%
    05:00 +4°C° 0 mm 3 mps 741 mmHg 91%
    06:00 +4°C° 0 mm 3 mps 742 mmHg 91%
    07:00 +4°C° 0 mm 3 mps 742 mmHg 90%
    08:00 +4°C° 0 mm 3 mps 742 mmHg 89%
    09:00 +6°C° 0 mm 4 mps 742 mmHg 76%
    10:00 +8°C° 0 mm 4 mps 742 mmHg 64%
    11:00 +10°C° 0 mm 5 mps 742 mmHg 51%
    12:00 +12°C° 0 mm 5 mps 741 mmHg 46%
    13:00 +13°C° 0 mm 4 mps 740 mmHg 41%
    14:00 +14°C° 0 mm 4 mps 739 mmHg 36%
    15:00 +13°C° 0 mm 4 mps 739 mmHg 39%
    16:00 +12°C° 0 mm 3 mps 738 mmHg 42%
    17:00 +11°C° 0 mm 3 mps 738 mmHg 46%
    18:00 +10°C° 0 mm 3 mps 738 mmHg 48%
    19:00 +9°C° 0 mm 3 mps 738 mmHg 50%
    20:00 +9°C° 0 mm 3 mps 739 mmHg 53%
    21:00 +8°C° 0 mm 3 mps 738 mmHg 55%
    22:00 +7°C° 0 mm 4 mps 738 mmHg 57%
    23:00 +6°C° 0 mm 4 mps 738 mmHg 59%

    30 June, Friday

    Time Temperature Precipitation Wind Pressure Humidity
    00:00 +6°C° 0 mm 4 mps 738 mmHg 61%
    01:00 +5°C° 0 mm 4 mps 737 mmHg 62%
    02:00 +5°C° 0 mm 4 mps 737 mmHg 63%
    03:00 +5°C° 0 mm 4 mps 737 mmHg 64%
    04:00 +4°C° 0 mm 4 mps 737 mmHg 65%
    05:00 +4°C° 0 mm 4 mps 737 mmHg 66%
    06:00 +4°C° 0 mm 4 mps 737 mmHg 65%
    07:00 +5°C° 0 mm 3 mps 737 mmHg 64%
    08:00 +5°C° 0 mm 3 mps 737 mmHg 63%
    09:00 +7°C° 0 mm 4 mps 737 mmHg 57%
    10:00 +10°C° 0 mm 5 mps 736 mmHg 50%
    11:00 +13°C° 0 mm 5 mps 736 mmHg 44%
    12:00 +14°C° 0 mm 5 mps 735 mmHg 40%
    13:00 +14°C° 0 mm 4 mps 734 mmHg 37%
    14:00 +15°C° 0 mm 4 mps 733 mmHg 34%
    15:00 +14°C° 0 mm 3 mps 733 mmHg 37%
    16:00 +14°C° 0 mm 2 mps 733 mmHg 41%
    17:00 +13°C° 0 mm 1 mps 733 mmHg 44%
    18:00 +12°C° 0 mm 1 mps 733 mmHg 45%
    19:00 +12°C° 0 mm 1 mps 733 mmHg 46%
    20:00 +10°C° 0 mm 2 mps 733 mmHg 47%
    21:00 +10°C° 0 mm 2 mps 733 mmHg 47%
    22:00 +10°C° 0 mm 2 mps 733 mmHg 48%
    23:00 +10°C° 0 mm 2 mps 733 mmHg 48%

    1 July, Saturday

    Time Temperature Precipitation Wind Pressure Humidity
    00:00 +10°C° 0 mm 2 mps 733 mmHg 49%
    01:00 +10°C° 0 mm 2 mps 732 mmHg 49%
    02:00 +9°C° 0 mm 2 mps 732 mmHg 49%
    03:00 +9°C° 0 mm 2 mps 732 mmHg 50%
    04:00 +10°C° 0 mm 1 mps 732 mmHg 51%
    05:00 +9°C° 0 mm 1 mps 732 mmHg 53%
    06:00 +9°C° 0 mm 1 mps 732 mmHg 52%
    07:00 +10°C° 0 mm 1 mps 732 mmHg 51%
    08:00 +10°C° 0 mm 1 mps 732 mmHg 50%
    09:00 +12°C° 0 mm 2 mps 732 mmHg 45%
    10:00 +14°C° 0 mm 2 mps 732 mmHg 39%
    11:00 +16°C° 0 mm 2 mps 732 mmHg 33%
    12:00 +17°C° 0 mm 3 mps 731 mmHg 31%
    13:00 +17°C° 0 mm 3 mps 731 mmHg 29%
    14:00 +18°C° 0 mm 3 mps 730 mmHg 27%
    15:00 +17°C° 0 mm 3 mps 730 mmHg 31%
    16:00 +14°C° 0 mm 3 mps 731 mmHg 35%
    17:00 +14°C° 0 mm 2 mps 731 mmHg 38%
    18:00 +13°C° 0 mm 2 mps 731 mmHg 41%
    19:00 +13°C° 0 mm 2 mps 732 mmHg 44%
    20:00 +12°C° 0 mm 2 mps 732 mmHg 47%
    21:00 +10°C° 0 mm 3 mps 733 mmHg 55%
    22:00 +10°C° 0 mm 3 mps 733 mmHg 63%
    23:00 +9°C° 0 mm 3 mps 733 mmHg 70%
    Show more